Regional Weather Roundup
Issued by NWS

Home | Current Version | Previous Version | Text Only | Print | Product List | Glossary Off
Versions: 1 2 3 4 5 6 7 8 9 10 11 12 13 14 15 16 17 18 19 20 21 22 23 24 25 26 27 28 29 30 31 32 33 34 35 36 37 38 39 40 41 42 43 44 45 46 47 48 49 50

000
ASUS43 KMKX 011721
RWRWI

WISCONSIN REGIONAL WEATHER ROUNDUP
NATIONAL WEATHER SERVICE MILWAUKEE/SULLIVAN WI
1200 PM CDT WED JUL 01 2015

NOTE: "FAIR" INDICATES FEW OR NO CLOUDS BELOW 12,000 FEET WITH NO
SIGNIFICANT WEATHER AND/OR OBSTRUCTIONS TO VISIBILITY.

WIZ001-002-006>008-014>016-023>028-011800-
NORTHWEST WISCONSIN

CITY           SKY/WX    TMP DP  RH WIND       PRES   REMARKS
SUPERIOR ARPT  SUNNY     66  56  70 NE3       30.02S
ASHLAND        SUNNY     66  50  56 CALM      30.03S
HAYWARD        MOSUNNY   65  47  52 CALM      30.03F
SIREN          SUNNY     68  46  45 S6        30.03S
CUMBERLAND     MOSUNNY   64  43  45 E3        30.03S
RICE LAKE      MOSUNNY   65  44  47 CALM      30.04F
CHETEK         MOSUNNY   65  46  51 E5        30.03S
LADYSMITH      PTSUNNY   65  47  51 N5        30.05S
EAU CLAIRE     PTSUNNY   65  44  46 VRB3      30.02S
MENOMONIE      MOSUNNY   65  48  52 E5        30.03S
NEW RICHMOND   MOSUNNY   67  49  53 SE6       30.03S
OSCEOLA        MOSUNNY   68  49  50 SE7       30.05S
$$

WIZ003>005-009-010-017-018-011800-
NORTH CENTRAL WISCONSIN

CITY           SKY/WX    TMP DP  RH WIND       PRES   REMARKS
MANITOWISH WTR MOSUNNY   63  47  57 NE7       30.03S
ARBOR VITAE    SUNNY     63  46  52 N8        30.03S
WOODRUFF       SUNNY     63  46  52 N8        30.03S
RHINELANDER    SUNNY     63  42  46 N8G16     30.03R
EAGLE RIVER    SUNNY     62  41  46 E6        30.03R
LAND O LAKES   SUNNY     62  43  49 N10       30.04R
PHILLIPS       SUNNY     63  46  53 NE8       30.03S
TOMAHAWK       MOSUNNY   62  44  51 N7        30.04R
MEDFORD        PTSUNNY   64  45  50 N6        30.02F
MERRILL        MOSUNNY   64  45  51 N12       30.02S
$$

WIZ029-030-035-036-043>047-011800-
CENTRAL WISCONSIN

CITY           SKY/WX    TMP DP  RH WIND       PRES   REMARKS
WAUSAU         PTSUNNY   66  44  45 VRB7      30.00S
MOSINEE        SUNNY     63  45  51 N7        30.03R
MARSHFIELD     PTSUNNY   64  45  49 N8        30.02R
STEVENS POINT  PTSUNNY   63  42  45 NE7       30.01S
WAUPACA        PTSUNNY   67  47  47 N8        30.00S
WAUTOMA        HAZE      68  46  45 VRB6      30.00S VSB 1
WISC RAPIDS    PTSUNNY   67  41  38 N12       30.02R
CAMP DOUGLAS   PTSUNNY   66  54  63 NE3       30.01R
$$

WIZ011>013-019>022-031-037>040-048>050-011800-
NORTHEAST WISCONSIN

CITY           SKY/WX    TMP DP  RH WIND       PRES   REMARKS
ANTIGO         SUNNY     63  44  49 NE8       30.02S
SHAWANO        SUNNY     66  47  51 NE5       30.00S
OCONTO         CLOUDY    57  50  75 N5        30.00S
STURGEON BAY   CLOUDY    55  46  71 N7        30.02S
GREEN BAY      CLOUDY    61  50  67 VRB5      30.01R
MANITOWOC      CLOUDY    57  52  83 MISG      30.01R
APPLETON       MOSUNNY   61  48  63 N9        30.00R
CLINTONVILLE   MOSUNNY   64  45  48 NE7       30.00S
OSHKOSH        PTSUNNY   63  49  60 VRB5      29.99R
$$

WIZ032>034-041-042-053>061-011800-
SOUTHWEST WISCONSIN

CITY           SKY/WX    TMP DP  RH WIND       PRES   REMARKS
LA CROSSE      CLOUDY    65  48  54 SE6       30.01S
SPARTA         PTSUNNY   65  43  45 E3        30.02F
VIROQUA        CLOUDY    64  47  54 E3        30.02S
BOSCOBEL       MOSUNNY   68  49  50 VRB7      30.00F
PRAIRIE DU CHI MOSUNNY   66  47  49 E7        29.98F
PLATTEVILLE    MOSUNNY   66  56  70 E7        29.99S
$$

WIZ056-057-062-063-064-067-068-011800-
SOUTH CENTRAL WISCONSIN

CITY           SKY/WX    TMP DP  RH WIND       PRES   REMARKS
REEDSBURG      MOSUNNY   65  47  52 N5        30.00S
BARABOO/DELLS  MOSUNNY   65  42  43 NW5       30.00S
LONE ROCK      SUNNY     68  48  48 N7        30.00F
MINERAL POINT  MOSUNNY   66  50  55 N5        30.00F
MADISON        PTSUNNY   67  47  48 NW6       29.99R
MIDDLETON      SUNNY     67  45  43 NE7       30.00S
WATERTOWN      SUNNY     66  51  59 N6        29.98S
MONROE         PTSUNNY   64  54  68 CALM      29.98F
JANESVILLE     PTSUNNY   68  52  56 NW8       29.98R
$$

WIZ051-052-058>065-066-070>072-011800-
SOUTHEAST WISCONSIN

CITY           SKY/WX    TMP DP  RH WIND       PRES   REMARKS
MILWAUKEE      MOSUNNY   62  50  64 E12       29.98S
WAUKESHA       MOSUNNY   63  48  59 NW6       29.99S
MILWAUKEE/TIMM SUNNY     66  48  52 NW6       29.99R
RACINE         SUNNY     63  50  62 NE10      30.00S
BURLINGTON     MOSUNNY   66  50  56 N5        29.98S
KENOSHA        SUNNY     64  51  62 E8        29.99S
FOND DU LAC    PTSUNNY   65  52  62 NE6       29.99R
SHEBOYGAN      CLOUDY    61  51  70 N9        29.99R
WEST BEND      CLOUDY    63  50  63 NE5       29.99R
JUNEAU         MOSUNNY   62  51  66 N5        30.00S
$$

LSZ147-162-011800-
LAKE SUPERIOR

STATION/POSITION TIME  TEMP    WIND        PRES    WAVE
                       AIR SEA DIR/SP/G            HT/PER
                 (UTC) (F)     (DEG/KT/KT) (MB)    (FT/S)
W MID LAKE BUOY  1650   46 39  170/  4/  4 1017.9R   1
DEVILS ISLAND    1700   58      70/  3/  4 1017.4R
SAXON HARBOR     1600   60        CALM     1016.9S
$$

LMZ867-665-643>646-011800-
LAKE MICHIGAN

STATION/POSITION TIME  TEMP    WIND        PRES    WAVE
                       AIR SEA DIR/SP/G            HT/PER
                 (UTC) (F)     (DEG/KT/KT) (MB)    (FT/S)
CHAMBERS ISLAND  1600   59      CALM  /  6 1015.6S
S GREEN BAY BUOY 1600   53 68  360/  8/ 12 1017.1
N MID LAKE BUOY  1650   46 41  320/  6/  8 1015.2R   2/ 4
NORTHPORT PIER   1700   56     340/ 10/ 15 1015.2S
SISTER BAY       1644   61      40/ 14/ 17   N/A
ALGOMA LAKESHORE 1640          330/ 10/ 14   N/A
KEWAUNEE LAKESHO 1600   55      20/  3/  7 1015.0R
SHEBOYGAN LAKESH 1700   53      70/ 12/ 13 1016.3R
PORT WASHINGTON  1600   60      90/  8/ 10 1015.9
ATWATER BUOY     1700   56     110/ 10/ 10 1017.0R
MILWAUKEE LAKESH 1700   57      90/  8/ 10   N/A
KENOSHA   LAKESH 1700   56     100/  8/ 10 1015.6S
$$

TC  - TEMPERATURE IN CELSIUS
VSB - VISIBILITY IN STATUTE MILES
WCI - WIND CHILL INDEX
HX  - HEAT INDEX



USA.gov is the U.S. government's official web portal to all federal, state and local government web resources and services.